www.pogodaiklimat.ru

Погода и климат >> Архив погоды >> Беларусь >> Полесская


ПОГОДА в Полесской

  • Прогноз погоды в Полесской
  • Монитор погоды в Полесской
  • Климат города

АРХИВ ПОГОДЫ в Полесской

Время (UTC), дата Ветер
(напр.,м/с)
 
Видим.   Явления Облачность Т
(С)
Тd
(С)
f
(%)
Тe
(С)
Тes
(С)
Комфортность P
(гПа)
Po
(гПа)
Тmin
(С)
Tmax
(С)
R
(мм)
R24
(мм)
S
(см)
03 14.06 штиль 0 4000 м дымка 10 баллов +13.1 +12.0 93 +13 +13 1009.0 994.2 +13.0
06 14.06 В 1 10 км 10/4 600 м
[Sc Ac trans Ci fib]
+22.2 +12.5 54 +25 +27 комфорт 1008.9 993.4 +13.0
09 14.06 СЗ 5 10 км 10/4 600 м
[Cu Sc Ac trans Ci fib]
+24.1 +10.9 43 +25 +28 комфорт 1009.6 994.2
12 14.06 СЗ 6
{10}
10 км 10/5 600 м
[Cu hum Ac trans Cs]
+23.7 +11.7 47 +25 +27 комфорт 1009.6 994.2
15 14.06 С 7-11
{11}
10 км 10/8 600 м
[Sc Ac trans Cs]
+20.9 +14.0 65 +23 +24 комфорт 1009.7 994.1
18 14.06 СЗ 3
{11}
10 км в посл. час ливневой дождь 10/10 600 м
[Cb cap]
+18.2 +16.2 88 +19 +19 1010.6 994.9 +25.0 0.0
21 14.06 СЗ 3 10 км 9/8 600 м
[Sc Ac trans]
+17.3 +15.8 91 +17 +17 1011.0 995.3
00 15.06 С 4 10 км 9/9 630 м
[Sc]
+16.6 +15.2 91 +16 +16 1010.5 994.7
03 15.06 С 5 10 км 9/9 540 м
[Sc]
+15.9 +14.3 90 +15 +15 1010.7 994.9 +15.9
06 15.06 С 4 10 км 10/10 600 м
[Cb cap]
+16.1 +14.2 88 +15 +15 1011.2 995.4 +15.9
09 15.06 С 4 10 км 9/9 600 м
[Cb cap]
+19.5 +13.1 66 +21 +22 комфорт 1011.7 996.1
12 15.06 С 5 10 км 10/8 600 м
[Cb cap Ci fib]
+20.8 +12.3 58 +23 +24 комфорт 1012.4 996.8
15 15.06 С 6
{10}
10 км 10/6 600 м
[Sc Ci fib]
+22.1 +12.6 55 +25 +25 комфорт 1012.3 996.8
18 15.06 С 3 10 км 10/8 600 м
[Cb cap Ci fib]
+17.2 +12.5 74 +17 +17 1013.8 997.9 +23.0
21 15.06 С 3 10 км 9/9 600 м
[Sc]
+14.6 +12.6 88 +14 +14 1014.6 998.6
00 16.06 С 2 4000 м дымка 9/9 600 м
[Sc]
+14.8 +13.5 92 +14 +14 1014.6 998.6
03 16.06 С 2 4000 м слабый ливневой дождь 10/10 600 м
[Cb cap]
+14.5 +12.8 90 +14 +14 1014.6 998.6 +14.0
06 16.06 С 3 10 км в посл. час ливневой дождь 9/9 600 м
[Cb cap]
+15.0 +13.4 90 +14 +15 1015.3 999.3 +14.0 0.0
09 16.06 СВ 3 10 км 9/9 870 м
[Sc]
+17.6 +11.2 66 +18 +19 1015.7 999.8
12 16.06 СВ 2 10 км 9/9 1260 м
[Sc]
+18.9 +12.1 65 +20 +22 1016.4 1000.6
15 16.06 С 2 10 км 10/6 600 м
[Cu hum Ci fib]
+20.9 +12.0 57 +24 +26 комфорт 1015.5 999.8
18 16.06 В 3 10 км 10/1 600 м
[Sc Ci fib]
+19.6 +13.1 66 +21 +22 комфорт 1015.6 999.9 +22.3
21 16.06 штиль 0 10 км 10/1 600 м
[Sc Ci fib]
+11.6 +10.0 90 +11 +11 1016.7 1000.5
00 17.06 штиль 0 4000 м дымка 10/1 600 м
[Sc Ci fib]
+8.9 +8.1 95 +8 +8 1017.1 1000.8
03 17.06 СЗ 1 4000 м дымка 10/0
[Ci fib]
+7.2 +6.5 95 +6 +7 1017.0 1000.6 +5.9
06 17.06 СВ 3 10 км 10/5 600 м
[Sc Ci fib]
+16.2 +12.9 81 +16 +18 1016.7 1000.8 +5.9
09 17.06 С 4 10 км 10/8 600 м
[Cu hum Ci fib]
+21.3 +13.7 62 +24 +26 комфорт 1016.6 1001.0
12 17.06 В 5 10 км 10/3 600 м
[Cu hum Ac trans Ci fib]
+23.7 +12.8 50 +26 +28 жарко 1015.6 1000.2
15 17.06 СВ 3 10 км 10/6 600 м
[Cu Sc Ac trans Ci fib]
+24.2 +13.2 50 +26 +27 жарко 1014.8 999.4
18 17.06 СВ 2 10 км 10/8 600 м
[Sc Ci fib]
+22.5 +13.3 56 +25 +25 комфорт 1015.5 999.9 +25.2
21 17.06 С 1 10 км 9/9 600 м
[Sc]
+18.9 +13.0 69 +21 +21 комфорт 1016.1 1000.3
00 18.06 СВ 1 10 км зарница 9/9 600 м
[Cb cap]
+17.5 +14.2 81 +19 +19 1015.8 1000.0
03 18.06 С 2 10 км 10/8 600 м
[Sc Ac trans Ci fib]
+16.6 +14.1 85 +17 +17 1015.7 999.8 +16.5
06 18.06 С 2 10 км 10/10 600 м
[Cb cap]
+17.7 +15.5 87 +18 +18 1016.8 1001.0 +16.5
09 18.06 С 2 10 км в посл. час ливневой дождь 10/4 600 м
[Cb cap Ac trans Ci fib]
+20.7 +16.9 79 +25 +30 комфорт 1016.8 1001.1
12 18.06 СВ 3
{11}
10 км {ливн. осадки} 10/3 600 м
[Cu hum Ac trans Ci fib]
+26.8 +13.6 44 +29 +33 жарко 1015.7 1000.4
15 18.06 СВ 5
{10}
10 км 10/4 600 м
[Cu hum Cs]
+28.4 +11.4 35 +29 +31 жарко 1014.6 999.4
18 18.06 ЮВ 2 10 км 10/5 600 м
[Sc Cs]
+25.0 +16.2 58 +28 +28 жарко 1015.8 1000.4 +29.5 0.1
21 18.06 СЗ 3
{11}
10 км 10/4 600 м
[Sc Ac trans Ci fib]
+18.7 +15.5 82 +20 +20 1017.1 1001.3
00 19.06 Ю 2 10 км 10/8 600 м
[Sc Ac trans Ci fib]
+16.9 +15.1 89 +17 +17 1017.1 1001.2
03 19.06 ЮЗ 3 10 км 9/8 600 м
[Sc Ac trans]
+17.5 +16.0 91 +17 +18 1017.1 1001.3 +16.5
06 19.06 ЮЗ 4 10 км 9/8 600 м
[Sc Ac trans]
+20.1 +16.9 82 +23 +24 комфорт 1017.7 1002.0 +16.5
09 19.06 З 2 10 км 10/3 600 м
[Cu hum Ci fib]
+26.7 +16.2 53 +30 +39 душно 1016.6 1001.3
12 19.06 З 5 10 км 10/6 600 м
[Cb cap Ci fib]
+27.7 +13.6 42 +30 +32 жарко 1015.7 1000.5
15 19.06 З 5 10 км 10/6 600 м
[Cu hum Ci fib]
+28.0 +13.1 40 +30 +31 жарко 1014.7 999.5
18 19.06 З 5 10 км 10/4 600 м
[Sc Cs]
+25.9 +9.9 36 +27 +27 жарко 1015.6 1000.3 +30.0
21 19.06 СЗ 2 10 км 10 баллов +17.7 +11.3 66 +18 +18 1018.0 1003.3
00 20.06 СЗ 2 10 км 10 баллов +15.5 +10.9 74 +15 +15 1019.0 1004.2
03 20.06 штиль 0 10 км 10 баллов +12.7 +10.6 87 +12 +12 1021.0 1006.0 +12.1
06 20.06 СЗ 4 10 км 6 баллов +21.3 +10.4 50 +23 +25 комфорт 1021.0 1006.5 +12.1
09 20.06 СЗ 5 10 км 10 баллов +25.0 +8.5 35 +25 +25 комфорт 1020.0 1005.6
12 20.06 З 5
{11}
10 км 6 баллов +26.5 +8.4 32 +27 +30 жарко 1018.0 1003.7
15 20.06 СЗ 8
{13}
10 км 6 баллов +28.1 +5.0 23 +27 +27 жарко 1017.0 1002.8
18 20.06 СЗ 4
{11}
10 км 10 баллов +25.9 +8.8 34 +26 +26 жарко 1017.0 1002.7 +28.7
21 20.06 штиль 0 10 км 10 баллов +16.4 +10.7 69 +16 +16 1018.0 1003.3
00 21.06 штиль 0 10 км 10 баллов +11.6 +9.2 85 +11 +11 1018.0 1003.0

 

Местоположение метеостанции Полесская (Брестская область, Беларусь): широта 52.30 долгота 26.70 высота над уровнем моря 124 м.

В архиве по умолчанию представлена погода в Полесской за последнюю неделю. Архивные данные за месяц целиком и за предыдущие месяцы, начиная с января 2011 года, Вы можете получить, выбрав интересующий диапазон дат из раскрывающегося списка и нажав кнопку "Ввод!".


*Определитесь, кто Вы:
робот инопланетянин человек

Внимание! Время в таблицах - всемирное. Для получения местного времени необходимо прибавить поправку, которая в Полесской равна 3 ч.

Смотрите также архив погоды в соседних городах и на ближайших метеорологических станциях:

Погода в Пинске (Брестская область, Беларусь) (48 км)
Погода в Ганцевичах (Брестская область, Беларусь) (53 км)
Погода в Житковичах (Гомельская область, Беларусь) (80 км)
Погода в Слуцке (Минская область, Беларусь) (99 км)
Погода в Ивацевичах (Брестская область, Беларусь) (101 км)
Погода в Барановичах (Брестская область, Беларусь) (105 км)
Погода в Дрогичине (Брестская область, Беларусь) (110 км)
Погода в Сарнах (Ровенская область, Украина) (114 км)
Погода в Любешове (Волынская область, Украина) (120 км)
Погода в Столбцах (Минская область, Беларусь) (131 км)

Пояснения к столбцам:

Ветер - указаны скорость ветра в м/с - средняя за 10 мин, порывы в срок и между сроками (в фигурных скобках) и направление, откуда дует ветер: С - северный, СВ - северо-восточный, В - восточный, ЮВ - юго-восточный, Ю - южный, ЮЗ - юго-западный, З - западный, СЗ - северо-западный.
Видимость - горизонтальная дальность видимости в метрах или километрах. При видимости от 1 до 10 км при отсутствии осадков обычно наблюдается дымка, при ухудшении видимости до 1 км и менее - туман. В сухую погоду видимость может ухудшаться дымом, пылью или мглою.
Явления - указаны атмосферные явления, наблюдавшиеся в срок или в последний час перед сроком; фигурными скобками обозначены явления, наблюдавшиеся между сроками (за 1-3 часа до срока); квадратными скобками обозначены град или гололедные отложения с указанием их диаметра в мм.
Облачность - указаны через наклонную черту общая и нижняя облачность в баллах и высота нижней границы облаков в метрах; квадратными скобками обозначены формы облаков: Ci - перистые, Cs - перисто-слоистые, Cc - перисто-кучевые, Ac - высококучевые, As - высокослоистые, Sc - слоисто-кучевые, Ns - слоисто-дождевые, Cu - кучевые, Cb - кучево-дождевые. Подробнее классификацию облаков см. в Атласе облаков (PDF).
T - Температура воздуха - температура, измеренная на высоте 2 м над землей.
Td - Температура точки росы - температура, при понижении до которой содержащийся в воздухе водяной пар достигнет насыщения.
f - Относительная влажность воздуха - влажноcть воздуха, измеренная на высоте 2 м над землей.
Te - Эффективная температура - температура, которую ощущает одетый по сезону человек в тени. Характеристика душности погоды. При расчете учитывается влияние влажности воздуха и скорости ветра на теплоощущения человека.
Tes - Эффективная температура на солнце - температура, которую ощущает человек, с поправкой на солнечный нагрев. Характеристика знойности погоды. Зависит от высоты солнца над горизонтом, облачности и скорости ветра. Ночью, в пасмурную погоду, а также при ветре 12 м/с и более поправка равна нулю.
P - Атмосферное давление - приведенное к уровню моря атмосферное давление.
Po - Атмосферное давление - измеренное на уровне метеостанции атмосферное давление.
Tmin - Минимальная температура - минимум температуры воздуха на высоте 2 м над землей.
Tmax - Максимальная температура - максимум температуры воздуха на высоте 2 м над землей.
R - Количество осадков - Количество выпавших осадков за период времени, мм. При наведении курсора мыши на число - период времени, за который выпало указанное количество осадков.
R24 - Количество осадков - Количество выпавших осадков за 24 часа, мм.
S - Снежный покров - Высота снежного покрова, см. При наведении курсора мыши на число - состояние снежного покрова и степень покрытия местности в баллах.